Printer-friendly version

IAU Minor Planet Center

Minor Planet Center

MPEC 2006-W60 : 2006 WR3

The following Minor Planet Electronic Circular may be linked-to from your own Web pages, but must not otherwise be redistributed electronically.

A form allowing access to any MPEC is at the bottom of this page.


Read MPEC 2006-W59 Read MPEC 2006-W61


M.P.E.C. 2006-W60                                Issued 2006 Nov. 22, 15:43 UT

     The Minor Planet Electronic Circulars contain information on unusual
         minor planets and routine data on comets.  They are published
   on behalf of Commission 20 of the International Astronomical Union by the
          Minor Planet Center, Smithsonian Astrophysical Observatory,
                          Cambridge, MA 02138, U.S.A.

             Prepared using the Tamkin Foundation Computer Network

                              MPC@CFA.HARVARD.EDU
          URL http://cfa-www.harvard.edu/iau/mpc.html  ISSN 1523-6714

                                   2006 WR3

Observations:
     K06W03R* C2006 11 20.34407 07 30 43.23 +37 55 16.4          19.0 V EW060703
     K06W03R  C2006 11 20.35017 07 30 42.84 +37 55 08.7          19.3 V EW060703
     K06W03R  C2006 11 20.35629 07 30 42.40 +37 55 02.2          19.2 V EW060703
     K06W03R  C2006 11 20.36236 07 30 42.08 +37 54 54.8          19.3 V EW060703
     K06W03R  C2006 11 20.44943 07 30 36.46 +37 53 14.1          19.5 V EW060703
     K06W03R  C2006 11 20.45546 07 30 36.07 +37 53 06.8          19.0 V EW060703
     K06W03R  C2006 11 21.09451 07 29 56.25 +37 40 35.9                 EW060J95
     K06W03R  C2006 11 21.09643 07 29 56.12 +37 40 34.1                 EW060J95
     K06W03R  C2006 11 21.09834 07 29 55.98 +37 40 31.3          19.4 R EW060J95
     K06W03R  C2006 11 21.32219607 29 41.77 +37 36 08.5          19.0   EW060H55
     K06W03R  C2006 11 21.32474707 29 41.59 +37 36 05.5          18.9   EW060H55
     K06W03R  C2006 11 21.32708107 29 41.44 +37 36 02.7          19.0   EW060H55
     K06W03R  C2006 11 21.32943207 29 41.28 +37 36 00.0          19.2   EW060H55
     K06W03R  C2006 11 21.36853 07 29 38.86 +37 35 14.6          19.4 R EW060854
     K06W03R  C2006 11 21.37525 07 29 38.34 +37 35 06.3          19.4 R EW060854
     K06W03R  C2006 11 21.38206 07 29 37.92 +37 34 58.8          19.4 R EW060854
     K06W03R  C2006 11 21.39215 07 29 37.21 +37 34 46.5          19.1 V EW060G96
     K06W03R  C2006 11 21.39325 07 29 37.14 +37 34 45.4          19.2 V EW060G96
     K06W03R  C2006 11 21.39440 07 29 37.10 +37 34 43.6          19.5 V EW060G96
     K06W03R  C2006 11 21.40191 07 29 36.53 +37 34 35.7          19.1 R EW060711
     K06W03R  C2006 11 21.46315 07 29 32.34 +37 33 22.0          18.8 R EW060H36
     K06W03R  C2006 11 21.46789 07 29 32.00 +37 33 15.7          19.1 R EW060H36
     K06W03R  C2006 11 21.47174 07 29 31.84 +37 33 12.7          18.6 V EW060703
     K06W03R  C2006 11 21.47256 07 29 31.68 +37 33 10.3          18.6 R EW060H36
     K06W03R  C2006 11 21.47532 07 29 31.56 +37 33 08.3          18.6 V EW060703
     K06W03R  C2006 11 21.47715 07 29 31.35 +37 33 04.0          19.2 R EW060H36
     K06W03R  C2006 11 21.47885 07 29 31.38 +37 33 03.8          18.6 V EW060703
     K06W03R  C2006 11 21.48237 07 29 31.02 +37 33 00.4          18.5 V EW060703
     K06W03R  C2006 11 22.41185 07 28 29.71 +37 14 25.3          19.2 V EW060703
     K06W03R  C2006 11 22.42425 07 28 28.81 +37 14 11.1          19.0 V EW060703
     K06W03R  C2006 11 22.43042 07 28 28.38 +37 14 03.8          18.9 V EW060703

Observer details:
703 Catalina Sky Survey.  Observer R. E. Hill.  Measurers E. C. Beshore,
    E. J. Christensen, G. J. Garradd, A. R. Gibbs, A. D. Grauer, R. E. Hill,
    R. A. Kowalski, S. M. Larson, R. H. McNaught.  0.68-m Schmidt + CCD.
711 McDonald Observatory.  Observer J. G. Ries.  0.76-m reflector + CCD
    + prime-focus corrector.
854 Sabino Canyon Observatory, Tucson.  Observer J. E. McGaha.  0.36-m f/10.0
    Schmidt-Cassegrain + CCD.
G96 Mt. Lemmon Survey.  Observer A. R. Gibbs.  Measurers E. C. Beshore,
    E. J. Christensen, G. J. Garradd, A. R. Gibbs, A. D. Grauer, R. E. Hill,
    R. A. Kowalski, S. M. Larson, R. H. McNaught.  1.5-m reflector + CCD.
H36 Sandlot Observatory, Scranton.  Observer G. Hug.  0.30-m
    Schmidt-Cassegrain + CCD.
H55 Astronomical Research Observatory, Charleston.  Observer R. Holmes.
    0.81-m f/4.0 astrograph + CCD.
J95 Great Shefford.  Observer P. Birtwhistle.  0.40-m f/6.0 Schmidt-Cassegrain
    + CCD.

Orbital elements:
2006 WR3
Epoch 2006 Nov. 21.0 TT = JDT 2454060.5                 MPC
M   2.09560              (2000.0)            P               Q
n   0.14082100     Peri.  161.18924     +0.12420134     -0.63628074
a   3.6589609      Node   275.02538     +0.78381617     +0.53343834
e   0.4345254      Incl.   49.84761     +0.60844575     -0.55730635
P   7.00           H   15.8           G   0.15
From 31 observations 2006 Nov. 20-22.

Ephemeris:
2006 WR3                 a,e,i = 3.66, 0.43, 50                  q = 2.0690
Date    TT    R. A. (2000) Decl.     Delta      r     Elong.  Phase     V
2006 11 21    07 30.04   +37 42.5    1.309    2.072   128.3    22.0    19.0
2006 12 01    07 16.91   +34 06.2    1.218    2.078   140.9    17.4    18.7
2006 12 11    06 59.47   +29 46.6    1.154    2.087   154.8    11.6    18.4
2006 12 21    06 39.61   +24 49.1    1.123    2.099   169.7     4.8    18.1
2006 12 31    06 19.95   +19 34.9    1.133    2.113   174.2     2.7    18.0
2007 01 10    06 02.86   +14 34.4    1.181    2.131   159.5     9.3    18.4
2007 01 20    05 49.81   +10 12.8    1.265    2.150   145.6    15.0    18.8
2007 01 30    05 41.35   +06 41.2    1.377    2.173   133.2    19.3    19.2
2007 02 09    05 37.26   +03 57.7    1.508    2.197   122.1    22.4    19.5
2007 02 19    05 36.99   +01 54.3    1.653    2.224   112.2    24.3    19.8
2007 03 01    05 39.95   +00 21.0    1.805    2.252   103.4    25.3    20.0
2007 03 11    05 45.53   -00 51.1    1.961    2.283    95.6    25.7    20.2
2007 03 21    05 53.24   -01 49.4    2.118    2.315    88.4    25.5    20.4
2007 03 31    06 02.68   -02 39.6    2.272    2.349    81.9    24.9    20.6
2007 04 10    06 13.50   -03 26.0    2.422    2.384    75.9    24.0    20.7
2007 04 20    06 25.43   -04 12.1    2.566    2.420    70.3    23.0    20.9
2007 04 30    06 38.26   -05 00.3    2.704    2.458    65.2    21.8    21.0
2007 05 10    06 51.79   -05 52.5    2.834    2.497    60.5    20.6    21.1

Timothy B. Spahr             (C) Copyright 2006 MPC           M.P.E.C. 2006-W60

Read MPEC 2006-W59 Read MPEC 2006-W61


MPEC number:

Enter an
MPEC number in one of the following forms:
  • 1997-B01 (the full form)
  • J97B01 (the packed version of the full form)
  • B01 (the abbreviated form)

Valid HTML 4.01!